GJGVV EGSU-EGHR

Flight info

Callsign GJGVV
Flight time 0h 42m
Altitude 2000
Route DUXFORD / TURWESTON / POPHAM / GOODWOOD
Aircraft SPIT/L-VGD/A

Departure

Time 2026-04-25 14:28
Airport Duxford Aerodrome (EGSU)

Arrival

Time 2026-04-25 15:10
Airport Goodwood Aerodrome (EGHR)
Time Latitude Longitude Altitude Speed Heading
2026-04-25 14:13 52.09229 0.12902 120 ft 0 kts 333°
2026-04-25 14:25 52.09247 0.12877 120 ft 0 kts 264°
2026-04-25 14:25 52.09245 0.12859 118 ft 11 kts 265°
2026-04-25 14:26 52.09162 0.12598 119 ft 13 kts 238°
2026-04-25 14:26 52.09107 0.12517 120 ft 6 kts 207°
2026-04-25 14:26 52.09050 0.12449 120 ft 6 kts 214°
2026-04-25 14:26 52.08984 0.12421 120 ft 10 kts 174°
2026-04-25 14:27 52.08954 0.12461 120 ft 0 kts 67°
2026-04-25 14:27 52.09027 0.12661 119 ft 51 kts 60°
2026-04-25 14:27 52.09328 0.13515 121 ft 123 kts 61°
2026-04-25 14:27 52.09788 0.14866 491 ft 149 kts 69°
2026-04-25 14:28 52.10340 0.16171 1018 ft 144 kts 32°
2026-04-25 14:28 52.11403 0.16507 1077 ft 169 kts 352°
2026-04-25 14:28 52.12371 0.15444 1306 ft 174 kts 306°
2026-04-25 14:28 52.12774 0.13632 1621 ft 176 kts 279°
2026-04-25 14:29 52.13098 0.11579 1597 ft 190 kts 287°
2026-04-25 14:29 52.13417 0.09513 1870 ft 188 kts 282°
2026-04-25 14:29 52.13600 0.07386 1992 ft 194 kts 271°
2026-04-25 14:29 52.13539 0.05145 1986 ft 202 kts 267°
2026-04-25 14:30 52.13456 0.02818 1997 ft 210 kts 267°
2026-04-25 14:30 52.13278 -0.02014 2002 ft 217 kts 267°
2026-04-25 14:30 52.13180 -0.04469 1995 ft 218 kts 267°
2026-04-25 14:31 52.13029 -0.06923 1999 ft 218 kts 263°
2026-04-25 14:31 52.12809 -0.09375 2000 ft 218 kts 262°
2026-04-25 14:31 52.12588 -0.11780 1999 ft 218 kts 262°
2026-04-25 14:31 52.12363 -0.14230 1994 ft 219 kts 262°
2026-04-25 14:32 52.12136 -0.16687 1999 ft 220 kts 262°
2026-04-25 14:32 52.11910 -0.19147 1985 ft 220 kts 262°
2026-04-25 14:32 52.11690 -0.21613 1981 ft 220 kts 262°
2026-04-25 14:32 52.11468 -0.24075 1980 ft 219 kts 262°
2026-04-25 14:33 52.11245 -0.26525 1986 ft 219 kts 262°
2026-04-25 14:33 52.11024 -0.28980 1981 ft 219 kts 262°
2026-04-25 14:33 52.10802 -0.31434 1984 ft 219 kts 262°
2026-04-25 14:33 52.10580 -0.33886 1975 ft 220 kts 262°
2026-04-25 14:34 52.10376 -0.36152 1959 ft 180 kts 262°
2026-04-25 14:34 52.10194 -0.38031 1959 ft 159 kts 261°
2026-04-25 14:34 52.10028 -0.39763 1964 ft 152 kts 262°
2026-04-25 14:34 52.09876 -0.41413 1962 ft 149 kts 262°
2026-04-25 14:35 52.09724 -0.43059 1968 ft 146 kts 262°
2026-04-25 14:35 52.09574 -0.44694 1970 ft 147 kts 262°
2026-04-25 14:35 52.09426 -0.46347 1966 ft 148 kts 262°
2026-04-25 14:35 52.09277 -0.48000 1964 ft 153 kts 262°
2026-04-25 14:36 52.09115 -0.49842 1989 ft 175 kts 263°
2026-04-25 14:36 52.08942 -0.51917 1985 ft 193 kts 262°
2026-04-25 14:36 52.08754 -0.54140 1980 ft 204 kts 263°
2026-04-25 14:36 52.08563 -0.56465 1980 ft 210 kts 263°
2026-04-25 14:37 52.08362 -0.58846 1979 ft 214 kts 263°
2026-04-25 14:37 52.08159 -0.61253 1977 ft 216 kts 263°
2026-04-25 14:37 52.07954 -0.63678 1977 ft 217 kts 263°
2026-04-25 14:37 52.07746 -0.66114 1976 ft 218 kts 263°
2026-04-25 14:38 52.07540 -0.68559 1972 ft 219 kts 263°
2026-04-25 14:38 52.07333 -0.71009 1977 ft 219 kts 263°
2026-04-25 14:38 52.07128 -0.73470 1971 ft 220 kts 263°
2026-04-25 14:38 52.06924 -0.75928 1979 ft 220 kts 263°
2026-04-25 14:39 52.06721 -0.78385 1980 ft 219 kts 263°
2026-04-25 14:39 52.06518 -0.80840 1978 ft 219 kts 263°
2026-04-25 14:39 52.06318 -0.83298 1979 ft 219 kts 263°
2026-04-25 14:39 52.06123 -0.85719 1977 ft 219 kts 263°
2026-04-25 14:40 52.05925 -0.88167 1979 ft 219 kts 263°
2026-04-25 14:40 52.05726 -0.90650 1983 ft 219 kts 263°
2026-04-25 14:40 52.05532 -0.93069 1985 ft 219 kts 263°
2026-04-25 14:40 52.05336 -0.95519 1986 ft 219 kts 263°
2026-04-25 14:41 52.05142 -0.97973 1985 ft 219 kts 263°
2026-04-25 14:41 52.04949 -1.00422 1985 ft 219 kts 263°
2026-04-25 14:41 52.04756 -1.02865 1984 ft 218 kts 263°
2026-04-25 14:41 52.04563 -1.05315 1996 ft 218 kts 262°
2026-04-25 14:42 52.03935 -1.07522 1980 ft 219 kts 227°
2026-04-25 14:42 52.03541 -1.08058 1987 ft 219 kts 215°
2026-04-25 14:42 52.01252 -1.09786 1980 ft 218 kts 200°
2026-04-25 14:42 51.99815 -1.10419 1969 ft 198 kts 193°
2026-04-25 14:43 51.98471 -1.10910 1967 ft 195 kts 193°
2026-04-25 14:43 51.97159 -1.11387 1969 ft 192 kts 193°
2026-04-25 14:43 51.95864 -1.11863 1966 ft 190 kts 193°
2026-04-25 14:43 51.94582 -1.12343 1969 ft 189 kts 193°
2026-04-25 14:44 51.93304 -1.12833 1967 ft 188 kts 193°
2026-04-25 14:44 51.92047 -1.13325 1965 ft 188 kts 194°
2026-04-25 14:44 51.90773 -1.13834 1966 ft 188 kts 194°
2026-04-25 14:44 51.89504 -1.14351 1967 ft 188 kts 194°
2026-04-25 14:45 51.88238 -1.14877 1966 ft 187 kts 194°
2026-04-25 14:45 51.86975 -1.15413 1965 ft 187 kts 195°
2026-04-25 14:45 51.85715 -1.15961 1962 ft 187 kts 195°
2026-04-25 14:45 51.84457 -1.16517 1967 ft 187 kts 195°
2026-04-25 14:46 51.83200 -1.17085 1969 ft 187 kts 196°
2026-04-25 14:46 51.81942 -1.17625 1960 ft 187 kts 189°
2026-04-25 14:46 51.80650 -1.17802 1968 ft 185 kts 183°
2026-04-25 14:46 51.79367 -1.17915 1965 ft 184 kts 183°
2026-04-25 14:47 51.78090 -1.18028 1964 ft 185 kts 183°
2026-04-25 14:47 51.77672 -1.18065 1963 ft 185 kts 183°
2026-04-25 14:47 51.75521 -1.18257 1969 ft 187 kts 183°
2026-04-25 14:47 51.74224 -1.18374 1969 ft 187 kts 183°
2026-04-25 14:48 51.72928 -1.18492 1971 ft 187 kts 183°
2026-04-25 14:48 51.71629 -1.18611 1968 ft 187 kts 183°
2026-04-25 14:48 51.70329 -1.18730 1972 ft 187 kts 183°
2026-04-25 14:48 51.69026 -1.18851 1969 ft 187 kts 183°
2026-04-25 14:49 51.67722 -1.18972 1967 ft 187 kts 183°
2026-04-25 14:49 51.66423 -1.19093 1964 ft 187 kts 183°
2026-04-25 14:49 51.65136 -1.19213 1967 ft 187 kts 184°
2026-04-25 14:49 51.63832 -1.19335 1970 ft 188 kts 183°
2026-04-25 14:50 51.62881 -1.19424 1967 ft 187 kts 184°
2026-04-25 14:50 51.61579 -1.19549 1969 ft 187 kts 184°
2026-04-25 14:50 51.60276 -1.19675 1965 ft 188 kts 184°
2026-04-25 14:50 51.58969 -1.19800 1969 ft 188 kts 184°
2026-04-25 14:51 51.57927 -1.19902 1968 ft 188 kts 184°
2026-04-25 14:51 51.56623 -1.20028 1969 ft 188 kts 184°
2026-04-25 14:51 51.55318 -1.20159 1972 ft 188 kts 184°
2026-04-25 14:51 51.54012 -1.20291 1974 ft 188 kts 184°
2026-04-25 14:52 51.52708 -1.20420 1971 ft 187 kts 184°
2026-04-25 14:52 51.51407 -1.20550 1970 ft 187 kts 184°
2026-04-25 14:52 51.50105 -1.20678 1972 ft 187 kts 184°
2026-04-25 14:52 51.49243 -1.20765 1974 ft 187 kts 184°
2026-04-25 14:53 51.47518 -1.20940 1973 ft 187 kts 184°
2026-04-25 14:53 51.46214 -1.21073 1974 ft 187 kts 184°
2026-04-25 14:53 51.44913 -1.21206 1974 ft 187 kts 184°
2026-04-25 14:53 51.43613 -1.21340 1975 ft 187 kts 184°
2026-04-25 14:54 51.42309 -1.21475 1979 ft 188 kts 184°
2026-04-25 14:54 51.41006 -1.21610 1978 ft 187 kts 184°
2026-04-25 14:54 51.39704 -1.21746 1979 ft 187 kts 184°
2026-04-25 14:54 51.38404 -1.21883 1979 ft 187 kts 184°
2026-04-25 14:55 51.37100 -1.22026 1979 ft 188 kts 184°
2026-04-25 14:55 51.35792 -1.22169 1975 ft 188 kts 183°
2026-04-25 14:55 51.34486 -1.22313 1974 ft 188 kts 184°
2026-04-25 14:55 51.33182 -1.22464 1974 ft 188 kts 184°
2026-04-25 14:56 51.31894 -1.22612 1980 ft 188 kts 184°
2026-04-25 14:56 51.30592 -1.22761 1977 ft 188 kts 184°
2026-04-25 14:56 51.29287 -1.22909 1976 ft 188 kts 184°
2026-04-25 14:56 51.27984 -1.23059 1972 ft 188 kts 184°
2026-04-25 14:57 51.26680 -1.23207 1975 ft 188 kts 184°
2026-04-25 14:57 51.25375 -1.23353 1974 ft 188 kts 184°
2026-04-25 14:57 51.24071 -1.23502 1974 ft 188 kts 184°
2026-04-25 14:57 51.22769 -1.23648 1977 ft 187 kts 184°
2026-04-25 14:58 51.21471 -1.23796 1974 ft 187 kts 184°
2026-04-25 14:58 51.20171 -1.23945 1975 ft 187 kts 184°
2026-04-25 14:58 51.18867 -1.24066 1968 ft 188 kts 177°
2026-04-25 14:58 51.17702 -1.23232 1971 ft 186 kts 139°
2026-04-25 14:59 51.16791 -1.21796 1982 ft 186 kts 134°
2026-04-25 14:59 51.15881 -1.20319 1978 ft 187 kts 134°
2026-04-25 14:59 51.14972 -1.18837 1982 ft 187 kts 134°
2026-04-25 14:59 51.14061 -1.17354 1981 ft 188 kts 134°
2026-04-25 15:00 51.13146 -1.15865 1981 ft 187 kts 134°
2026-04-25 15:00 51.12234 -1.14381 1981 ft 187 kts 134°
2026-04-25 15:00 51.11333 -1.12919 1984 ft 187 kts 134°
2026-04-25 15:00 51.10417 -1.11439 1980 ft 188 kts 134°
2026-04-25 15:01 51.09502 -1.09953 1977 ft 187 kts 134°
2026-04-25 15:01 51.08589 -1.08473 1980 ft 187 kts 134°
2026-04-25 15:01 51.07678 -1.06998 1978 ft 187 kts 134°
2026-04-25 15:01 51.06765 -1.05519 1977 ft 187 kts 134°
2026-04-25 15:02 51.05851 -1.04045 1982 ft 188 kts 134°
2026-04-25 15:02 51.04933 -1.02565 1980 ft 188 kts 135°
2026-04-25 15:02 51.04017 -1.01088 1986 ft 187 kts 135°
2026-04-25 15:02 51.03098 -0.99612 1974 ft 188 kts 134°
2026-04-25 15:03 51.02180 -0.98139 1982 ft 188 kts 135°
2026-04-25 15:03 51.01260 -0.96663 1979 ft 188 kts 135°
2026-04-25 15:03 51.00338 -0.95185 1982 ft 189 kts 135°
2026-04-25 15:03 50.99414 -0.93707 1990 ft 188 kts 135°
2026-04-25 15:04 50.98491 -0.92234 1986 ft 188 kts 135°
2026-04-25 15:04 50.97569 -0.90766 1988 ft 188 kts 134°
2026-04-25 15:04 50.96652 -0.89313 1983 ft 188 kts 135°
2026-04-25 15:04 50.95726 -0.87849 1982 ft 187 kts 135°
2026-04-25 15:05 50.94807 -0.86391 1984 ft 187 kts 135°
2026-04-25 15:05 50.93884 -0.84937 1990 ft 187 kts 135°
2026-04-25 15:05 50.92958 -0.83480 1998 ft 188 kts 134°
2026-04-25 15:06 50.91094 -0.80538 1992 ft 189 kts 135°
2026-04-25 15:06 50.90160 -0.79073 1996 ft 189 kts 135°
2026-04-25 15:06 50.89154 -0.77838 1752 ft 165 kts 156°
2026-04-25 15:06 50.88042 -0.77312 1242 ft 184 kts 166°
2026-04-25 15:07 50.86689 -0.76601 678 ft 228 kts 155°
2026-04-25 15:07 50.85292 -0.75233 750 ft 234 kts 147°
2026-04-25 15:07 50.84365 -0.73654 1276 ft 147 kts 98°
2026-04-25 15:07 50.84755 -0.72467 1222 ft 129 kts 21°
2026-04-25 15:08 50.85649 -0.72547 1097 ft 132 kts 337°
2026-04-25 15:08 50.86495 -0.73214 899 ft 138 kts 330°
2026-04-25 15:08 50.87227 -0.74063 897 ft 128 kts 312°
2026-04-25 15:08 50.87709 -0.75158 811 ft 121 kts 290°
2026-04-25 15:09 50.87752 -0.76384 777 ft 106 kts 247°
2026-04-25 15:09 50.87239 -0.77135 541 ft 101 kts 185°
2026-04-25 15:09 50.86164 -0.76253 125 ft 80 kts 142°
2026-04-25 15:10 50.85812 -0.75817 97 ft 41 kts 143°
2026-04-25 15:10 50.85710 -0.75615 100 ft 10 kts 52°
2026-04-25 15:10 50.85826 -0.75588 98 ft 1 kts 356°
2026-04-25 15:11 50.85860 -0.75575 99 ft 2 kts 14°
2026-04-25 15:11 50.85891 -0.75531 100 ft 2 kts 22°
2026-04-25 15:11 50.85892 -0.75530 100 ft 1 kts 264°